Tracking 27111 objects as of 28-Mar-2023
HD Live streaming from Space Station
objects crossing your sky now

SL-14 R/B

Track SL-14 R/B now!
10-day predictions


NORAD ID: 22652
Int'l Code: 1993-030G
Perigee: 1,410.1 km
Apogee: 1,424.0 km
Inclination: 82.6 °
Period: 114.0 minutes
Semi major axis: 7788 km
RCS: 0.9779 m2 (medium)
Launch date: May 11, 1993
Source: Commonwealth of Independent States (former USSR) (CIS)
Launch site: PLESETSK MISSILE AND SPACE COMPLEX (PKMTR)

Note: This is a ROCKET BODY
Your satellite tracking list
Your tracking list is empty




NASA's NSSDC Master Catalog

Two Line Element Set (TLE):
1 22652U 93030G   23086.85614455  .00000045  00000-0  18692-3 0  9997
2 22652  82.5928 355.7167 0008925  89.2007 339.3342 12.63158783377397
Source of the keplerian elements: AFSPC